When you browse on this site, cookies collect data to enhance your experience and personalize the content and advertising you see.
Visit our Privacy Policy to learn more. By continuing to use the site, you agree to this use of cookies and data.
  • En España
  • Lista de países
  • Para 7 días
  • Temperatura del agua
  • El tiempo en el mapa
  • Informadores
  • user-avatar
    Iniciar sesión

    Tiempo cada hora Yulara

    Hoy, 29 Mayo, Viernes

    Tiempo Temperatura Precipitaciones Viento Presión Humedad
    00:00 +13°C° 0 mm 4 mps 721 mmHg 46%
    01:00 +12°C° 0 mm 4 mps 721 mmHg 48%
    02:00 +12°C° 0 mm 4 mps 721 mmHg 50%
    03:00 +11°C° 0 mm 4 mps 721 mmHg 52%
    04:00 +11°C° 0 mm 4 mps 721 mmHg 53%
    05:00 +11°C° 0 mm 3 mps 721 mmHg 54%
    06:00 +10°C° 0 mm 3 mps 721 mmHg 55%
    07:00 +12°C° 0 mm 4 mps 722 mmHg 49%
    08:00 +15°C° 0 mm 4 mps 722 mmHg 44%
    09:00 +17°C° 0 mm 5 mps 723 mmHg 38%
    10:00 +20°C° 0 mm 5 mps 722 mmHg 34%
    11:00 +23°C° 0 mm 5 mps 722 mmHg 30%
    12:00 +26°C° 0 mm 5 mps 722 mmHg 26%
    13:00 +27°C° 0 mm 4 mps 721 mmHg 25%
    14:00 +27°C° 0 mm 4 mps 720 mmHg 24%
    15:00 +28°C° 0 mm 4 mps 720 mmHg 23%
    16:00 +27°C° 0 mm 3 mps 720 mmHg 25%
    17:00 +25°C° 0 mm 3 mps 720 mmHg 27%
    18:00 +24°C° 0 mm 3 mps 720 mmHg 29%
    19:00 +22°C° 0 mm 3 mps 720 mmHg 30%
    20:00 +22°C° 0 mm 3 mps 720 mmHg 30%
    21:00 +21°C° 0 mm 3 mps 721 mmHg 31%
    22:00 +21°C° 0 mm 3 mps 721 mmHg 31%
    23:00 +20°C° 0 mm 4 mps 720 mmHg 30%

    Mañana, 30 Mayo, Sábado

    Tiempo Temperatura Precipitaciones Viento Presión Humedad
    00:00 +20°C° 0 mm 4 mps 720 mmHg 29%
    01:00 +19°C° 0 mm 4 mps 720 mmHg 30%
    02:00 +18°C° 0 mm 4 mps 720 mmHg 31%
    03:00 +18°C° 0 mm 3 mps 719 mmHg 31%
    04:00 +18°C° 0 mm 3 mps 720 mmHg 32%
    05:00 +18°C° 0 mm 3 mps 720 mmHg 32%
    06:00 +18°C° 0 mm 3 mps 720 mmHg 33%
    07:00 +19°C° 0 mm 4 mps 720 mmHg 32%
    08:00 +20°C° 0 mm 5 mps 720 mmHg 32%
    09:00 +21°C° 0 mm 6 mps 721 mmHg 32%
    10:00 +22°C° 0 mm 7 mps 720 mmHg 31%
    11:00 +24°C° 0 mm 8 mps 720 mmHg 30%
    12:00 +26°C° 0 mm 9 mps 720 mmHg 30%
    13:00 +27°C° 0 mm 9 mps 720 mmHg 30%
    14:00 +27°C° 0 mm 9 mps 719 mmHg 30%
    15:00 +28°C° 0 mm 9 mps 719 mmHg 30%
    16:00 +26°C° 0 mm 7 mps 719 mmHg 36%
    17:00 +23°C° 0 mm 5 mps 719 mmHg 43%
    18:00 +21°C° 0 mm 3 mps 719 mmHg 49%
    19:00 +20°C° 0 mm 3 mps 720 mmHg 57%
    20:00 +19°C° 0 mm 2 mps 720 mmHg 65%
    21:00 +18°C° 0 mm 2 mps 720 mmHg 73%
    22:00 +17°C° 0 mm 2 mps 720 mmHg 71%
    23:00 +17°C° 0 mm 2 mps 720 mmHg 68%

    Pasado mañana, 31 Mayo, Domingo

    Tiempo Temperatura Precipitaciones Viento Presión Humedad
    00:00 +16°C° 0 mm 2 mps 720 mmHg 66%
    01:00 +16°C° 0 mm 3 mps 720 mmHg 63%
    02:00 +14°C° 0 mm 3 mps 720 mmHg 59%
    03:00 +14°C° 0 mm 3 mps 720 mmHg 56%
    04:00 +14°C° 0 mm 3 mps 720 mmHg 57%
    05:00 +13°C° 0 mm 3 mps 720 mmHg 58%
    06:00 +13°C° 0 mm 3 mps 720 mmHg 59%
    07:00 +14°C° 0 mm 3 mps 721 mmHg 55%
    08:00 +16°C° 0 mm 3 mps 722 mmHg 52%
    09:00 +17°C° 0 mm 3 mps 722 mmHg 48%
    10:00 +19°C° 0 mm 2 mps 722 mmHg 44%
    11:00 +22°C° 0 mm 1 mps 722 mmHg 40%
    12:00 +22°C° 0 mm 0 mps 721 mmHg 36%
    13:00 +25°C° 0 mm 2 mps 721 mmHg 33%
    14:00 +26°C° 0 mm 4 mps 720 mmHg 29%
    15:00 +27°C° 0 mm 5 mps 720 mmHg 26%
    16:00 +25°C° 0 mm 5 mps 720 mmHg 28%
    17:00 +22°C° 0 mm 5 mps 720 mmHg 29%
    18:00 +20°C° 0 mm 5 mps 720 mmHg 30%
    19:00 +17°C° 0 mm 6 mps 720 mmHg 31%
    20:00 +16°C° 0 mm 6 mps 721 mmHg 33%
    21:00 +14°C° 0 mm 6 mps 721 mmHg 34%
    22:00 +13°C° 0 mm 6 mps 721 mmHg 33%
    23:00 +11°C° 0 mm 6 mps 722 mmHg 33%

    1 Junio, Lunes

    Tiempo Temperatura Precipitaciones Viento Presión Humedad
    00:00 +10°C° 0 mm 7 mps 722 mmHg 33%
    01:00 +10°C° 0 mm 6 mps 721 mmHg 36%
    02:00 +9°C° 0 mm 5 mps 721 mmHg 40%
    03:00 +8°C° 0 mm 5 mps 721 mmHg 44%
    04:00 +7°C° 0 mm 4 mps 721 mmHg 49%
    05:00 +7°C° 0 mm 3 mps 721 mmHg 55%
    06:00 +7°C° 0 mm 2 mps 722 mmHg 60%
    07:00 +9°C° 0 mm 3 mps 722 mmHg 56%
    08:00 +11°C° 0 mm 4 mps 723 mmHg 51%
    09:00 +14°C° 0 mm 5 mps 724 mmHg 47%
    10:00 +15°C° 0 mm 5 mps 723 mmHg 43%
    11:00 +17°C° 0 mm 5 mps 723 mmHg 40%
    12:00 +20°C° 0 mm 5 mps 723 mmHg 37%
    13:00 +20°C° 0 mm 5 mps 723 mmHg 35%
    14:00 +21°C° 0 mm 5 mps 722 mmHg 33%
    15:00 +21°C° 0 mm 5 mps 722 mmHg 31%
    16:00 +19°C° 0 mm 6 mps 722 mmHg 38%
    17:00 +16°C° 0 mm 6 mps 722 mmHg 45%
    18:00 +15°C° 0 mm 7 mps 722 mmHg 52%
    19:00 +13°C° 0 mm 6 mps 723 mmHg 57%
    20:00 +11°C° 0 mm 6 mps 724 mmHg 63%
    21:00 +10°C° 0 mm 6 mps 724 mmHg 68%
    22:00 +9°C° 0 mm 6 mps 724 mmHg 70%
    23:00 +8°C° 0 mm 5 mps 724 mmHg 72%

    2 Junio, Martes

    Tiempo Temperatura Precipitaciones Viento Presión Humedad
    00:00 +7°C° 0 mm 5 mps 724 mmHg 74%
    01:00 +7°C° 0 mm 5 mps 724 mmHg 75%
    02:00 +6°C° 0 mm 5 mps 724 mmHg 76%
    03:00 +6°C° 0 mm 4 mps 724 mmHg 76%
    04:00 +5°C° 0 mm 5 mps 724 mmHg 76%
    05:00 +5°C° 0 mm 5 mps 724 mmHg 77%
    06:00 +3°C° 0 mm 5 mps 725 mmHg 77%
    07:00 +5°C° 0 mm 6 mps 725 mmHg 69%
    08:00 +7°C° 0 mm 6 mps 726 mmHg 62%
    09:00 +9°C° 0 mm 7 mps 726 mmHg 55%
    10:00 +11°C° 0 mm 7 mps 726 mmHg 47%
    11:00 +14°C° 0 mm 7 mps 725 mmHg 40%
    12:00 +16°C° 0 mm 7 mps 725 mmHg 33%
    13:00 +17°C° 0 mm 7 mps 725 mmHg 29%
    14:00 +17°C° 0 mm 7 mps 724 mmHg 26%
    15:00 +18°C° 0 mm 7 mps 723 mmHg 22%
    16:00 +16°C° 0 mm 6 mps 724 mmHg 26%
    17:00 +14°C° 0 mm 5 mps 724 mmHg 29%
    18:00 +13°C° 0 mm 5 mps 724 mmHg 33%
    19:00 +10°C° 0 mm 5 mps 725 mmHg 37%
    20:00 +9°C° 0 mm 5 mps 725 mmHg 41%
    21:00 +8°C° 0 mm 5 mps 725 mmHg 44%
    22:00 +7°C° 0 mm 5 mps 725 mmHg 48%
    23:00 +7°C° 0 mm 4 mps 725 mmHg 51%

    3 Junio, Miércoles

    Tiempo Temperatura Precipitaciones Viento Presión Humedad
    00:00 +6°C° 0 mm 4 mps 725 mmHg 55%
    01:00 +5°C° 0 mm 4 mps 725 mmHg 56%
    02:00 +5°C° 0 mm 4 mps 725 mmHg 58%
    03:00 +4°C° 0 mm 4 mps 725 mmHg 59%
    04:00 +4°C° 0 mm 4 mps 725 mmHg 60%
    05:00 +4°C° 0 mm 4 mps 726 mmHg 61%
    06:00 +4°C° 0 mm 4 mps 726 mmHg 61%
    07:00 +5°C° 0 mm 5 mps 726 mmHg 57%
    08:00 +7°C° 0 mm 6 mps 727 mmHg 53%
    09:00 +8°C° 0 mm 7 mps 727 mmHg 49%
    10:00 +10°C° 0 mm 7 mps 727 mmHg 44%
    11:00 +12°C° 0 mm 7 mps 726 mmHg 39%
    12:00 +15°C° 0 mm 7 mps 726 mmHg 34%
    13:00 +16°C° 0 mm 6 mps 725 mmHg 31%
    14:00 +17°C° 0 mm 6 mps 725 mmHg 29%
    15:00 +19°C° 0 mm 6 mps 724 mmHg 27%
    16:00 +16°C° 0 mm 5 mps 724 mmHg 31%
    17:00 +14°C° 0 mm 5 mps 724 mmHg 35%
    18:00 +12°C° 0 mm 4 mps 724 mmHg 40%
    19:00 +11°C° 0 mm 4 mps 725 mmHg 44%
    20:00 +8°C° 0 mm 4 mps 725 mmHg 48%
    21:00 +7°C° 0 mm 4 mps 726 mmHg 52%
    22:00 +7°C° 0 mm 4 mps 726 mmHg 56%
    23:00 +6°C° 0 mm 4 mps 725 mmHg 59%
    Mostrar más